Location: Cornospital
(48.0620°N, 3.3837°W)
Time: 19:26:15
(UTC+00:00)

Cosmos 2333 Rocket - Pass Details

Date: 17 June 2021
Orbit: 841 x 861 km, 70.8° (Epoch: 03 August)

Event Time Altitude Azimuth Distance (km) Brightness Sun altitude
Exits shadow 20:55:55 - 147° (SSE) 2,817 4.3 -5.8°
Reaches altitude 10° 20:57:11 10° 139° (SE) 2,489 4.0 -6.0°
Maximum altitude 21:00:49 18° 99° (E) 2,008 3.7 -6.4°
Drops below altitude 10° 21:04:27 10° 59° (ENE) 2,494 4.5 -6.8°
Sets 21:07:41 0° 41° (NE) 3,431 5.5 -7.2°
